Volver al catálogo

SL-14 DEB

ActivoPO
NORAD 45321·DEBRIS·🇷🇺 Russia

Lanzado Aug 15, 1991 desde Plesetsk Cosmodrome

Loading…

Próximos Pases (próximas 24 horas)

TLE

ActualizadoSource: Space-Track

Época: Sep 14, 2026, 21:26 UTC

1 45321U 91056BK  26257.89314565  .00000084  00000-0  18026-3 0  9991
2 45321  82.5576  70.8305 0022333 227.3902 132.5339 13.19510357315203

Sigue SL-14 DEB en tiempo real con AllMySat

Download on the App Store